User: anonymous   Login
Location: Freemans Gardens
(41.6414°N, 83.6077°W)
Time: 21:58:45
(UTC+00:00)
Language:

USA 307 - Orbit

View from above orbital plane
View from above orbital plane
View from above satellite
View from above satellite

Ground track
Ground track

The orbit data is extracted from the following two-line orbital elements,

1 45875U 20046C   21011.77211235 0.00001872  00000-0  15697-3 0    06
2 45875  53.9729 225.0560 0014087  45.4320 314.4203 14.97859442    04
Epoch (UTC): 11 January 2021 18:31:50
Eccentricity: 0.0014087
inclination: 53.9729°
perigee height: 564 km
apogee height: 583 km
right ascension of ascending node: 225.0560°
argument of perigee: 45.4320°
revolutions per day: 14.97859442
mean anomaly at epoch: 314.4203°
orbit number at epoch: 0

The dashed part of the orbit path shows where the satellite is in the earth's shadow,  

DLR